owner,sensor,date,latitude,longitude,relative_humidity,qcFlag 
COMPS,ioos:station:USF.COMPS:C12:1,2019-10-01T00:35:00,27.4980,-83.7220,84.29,11111222 
COMPS,ioos:station:USF.COMPS:C12:1,2019-10-01T01:35:00,27.4980,-83.7220,84.74,11111222 
COMPS,ioos:station:USF.COMPS:C12:1,2019-10-01T02:35:00,27.4980,-83.7220,78.2,11111222 
COMPS,ioos:station:USF.COMPS:C12:1,2019-10-01T03:35:00,27.4980,-83.7220,74.66,11111222 
COMPS,ioos:station:USF.COMPS:C12:1,2019-10-01T04:35:00,27.4980,-83.7220,77.01,11111222 
COMPS,ioos:station:USF.COMPS:C12:1,2019-10-01T05:35:00,27.4980,-83.7220,78.46,11111222 
COMPS,ioos:station:USF.COMPS:C12:1,2019-10-01T06:35:00,27.4980,-83.7220,83.05,11111222 
COMPS,ioos:station:USF.COMPS:C12:1,2019-10-01T07:35:00,27.4980,-83.7220,83.06,11111222 
COMPS,ioos:station:USF.COMPS:C12:1,2019-10-01T08:35:00,27.4980,-83.7220,83.91,11111222 
COMPS,ioos:station:USF.COMPS:C12:1,2019-10-01T09:35:00,27.4980,-83.7220,83.89,11111222 
COMPS,ioos:station:USF.COMPS:C12:1,2019-10-01T10:35:00,27.4980,-83.7220,83.87,11111222 
COMPS,ioos:station:USF.COMPS:C12:1,2019-10-01T11:35:00,27.4980,-83.7220,80.83,11111222 
COMPS,ioos:station:USF.COMPS:C12:1,2019-10-01T12:35:00,27.4980,-83.7220,80.14,11111222 
COMPS,ioos:station:USF.COMPS:C12:1,2019-10-01T13:35:00,27.4980,-83.7220,77.76,11111222 
COMPS,ioos:station:USF.COMPS:C12:1,2019-10-01T14:35:00,27.4980,-83.7220,76.93,11111222 
COMPS,ioos:station:USF.COMPS:C12:1,2019-10-01T15:35:00,27.4980,-83.7220,78.49,11111222 
COMPS,ioos:station:USF.COMPS:C12:1,2019-10-01T16:35:00,27.4980,-83.7220,77.92,11111222 
COMPS,ioos:station:USF.COMPS:C12:1,2019-10-01T17:35:00,27.4980,-83.7220,78.58,11111222 
COMPS,ioos:station:USF.COMPS:C12:1,2019-10-01T18:35:00,27.4980,-83.7220,77.75,11111222 
COMPS,ioos:station:USF.COMPS:C12:1,2019-10-01T19:35:00,27.4980,-83.7220,77.0,11111222 
COMPS,ioos:station:USF.COMPS:C12:1,2019-10-01T20:35:00,27.4980,-83.7220,78.16,11111222 
COMPS,ioos:station:USF.COMPS:C12:1,2019-10-01T21:35:00,27.4980,-83.7220,75.47,11111222 
COMPS,ioos:station:USF.COMPS:C12:1,2019-10-01T22:35:00,27.4980,-83.7220,75.35,11111222 
COMPS,ioos:station:USF.COMPS:C12:1,2019-10-01T23:35:00,27.4980,-83.7220,74.04,11111222 
COMPS,ioos:station:USF.COMPS:C12:1,2019-10-02T00:35:00,27.4980,-83.7220,70.09,11111222 
COMPS,ioos:station:USF.COMPS:C12:1,2019-10-02T01:35:00,27.4980,-83.7220,68.48,11111222 
COMPS,ioos:station:USF.COMPS:C12:1,2019-10-02T02:35:00,27.4980,-83.7220,67.52,11111222 
COMPS,ioos:station:USF.COMPS:C12:1,2019-10-02T03:35:00,27.4980,-83.7220,68.48,11111222 
COMPS,ioos:station:USF.COMPS:C12:1,2019-10-02T04:35:00,27.4980,-83.7220,74.05,11111222 
COMPS,ioos:station:USF.COMPS:C12:1,2019-10-02T05:35:00,27.4980,-83.7220,76.21,11111222 
COMPS,ioos:station:USF.COMPS:C12:1,2019-10-02T06:35:00,27.4980,-83.7220,77.77,11111222 
COMPS,ioos:station:USF.COMPS:C12:1,2019-10-02T07:35:00,27.4980,-83.7220,79.68,11111222 
COMPS,ioos:station:USF.COMPS:C12:1,2019-10-02T08:35:00,27.4980,-83.7220,79.22,11111222 
COMPS,ioos:station:USF.COMPS:C12:1,2019-10-02T09:35:00,27.4980,-83.7220,77.85,11111222 
COMPS,ioos:station:USF.COMPS:C12:1,2019-10-02T10:35:00,27.4980,-83.7220,82.26,11111222 
COMPS,ioos:station:USF.COMPS:C12:1,2019-10-02T11:35:00,27.4980,-83.7220,80.37,11111222 
COMPS,ioos:station:USF.COMPS:C12:1,2019-10-02T12:35:00,27.4980,-83.7220,79.94,11111222 
COMPS,ioos:station:USF.COMPS:C12:1,2019-10-02T13:35:00,27.4980,-83.7220,80.96,11111222 
COMPS,ioos:station:USF.COMPS:C12:1,2019-10-02T14:35:00,27.4980,-83.7220,80.45,11111222 
COMPS,ioos:station:USF.COMPS:C12:1,2019-10-02T15:35:00,27.4980,-83.7220,80.89,11111222 
COMPS,ioos:station:USF.COMPS:C12:1,2019-10-02T16:35:00,27.4980,-83.7220,79.58,11111222 
COMPS,ioos:station:USF.COMPS:C12:1,2019-10-02T17:35:00,27.4980,-83.7220,77.58,11111222 
COMPS,ioos:station:USF.COMPS:C12:1,2019-10-02T18:35:00,27.4980,-83.7220,78.34,11111222 
COMPS,ioos:station:USF.COMPS:C12:1,2019-10-02T19:35:00,27.4980,-83.7220,75.9,11111222 
COMPS,ioos:station:USF.COMPS:C12:1,2019-10-02T20:35:00,27.4980,-83.7220,78.78,11111222 
COMPS,ioos:station:USF.COMPS:C12:1,2019-10-02T21:35:00,27.4980,-83.7220,78.65,11111222 
COMPS,ioos:station:USF.COMPS:C12:1,2019-10-02T22:35:00,27.4980,-83.7220,79.02,11111222 
COMPS,ioos:station:USF.COMPS:C12:1,2019-10-02T23:35:00,27.4980,-83.7220,79.7,11111222 
COMPS,ioos:station:USF.COMPS:C12:1,2019-10-03T00:35:00,27.4980,-83.7220,79.19,11111222 
COMPS,ioos:station:USF.COMPS:C12:1,2019-10-03T01:35:00,27.4980,-83.7220,79.44,11111222 
COMPS,ioos:station:USF.COMPS:C12:1,2019-10-03T02:35:00,27.4980,-83.7220,70.86,11111222 
COMPS,ioos:station:USF.COMPS:C12:1,2019-10-03T03:35:00,27.4980,-83.7220,74.34,11111222 
COMPS,ioos:station:USF.COMPS:C12:1,2019-10-03T04:35:00,27.4980,-83.7220,74.42,11111222 
COMPS,ioos:station:USF.COMPS:C12:1,2019-10-03T05:35:00,27.4980,-83.7220,76.38,11111222 
COMPS,ioos:station:USF.COMPS:C12:1,2019-10-03T06:35:00,27.4980,-83.7220,78.89,11111222 
COMPS,ioos:station:USF.COMPS:C12:1,2019-10-03T07:35:00,27.4980,-83.7220,80.21,11111222 
COMPS,ioos:station:USF.COMPS:C12:1,2019-10-03T08:35:00,27.4980,-83.7220,79.95,11111222 
COMPS,ioos:station:USF.COMPS:C12:1,2019-10-03T09:35:00,27.4980,-83.7220,80.38,11111222 
COMPS,ioos:station:USF.COMPS:C12:1,2019-10-03T10:35:00,27.4980,-83.7220,81.8,11111222 
COMPS,ioos:station:USF.COMPS:C12:1,2019-10-03T11:35:00,27.4980,-83.7220,81.59,11111222 
COMPS,ioos:station:USF.COMPS:C12:1,2019-10-03T12:35:00,27.4980,-83.7220,81.39,11111222 
COMPS,ioos:station:USF.COMPS:C12:1,2019-10-03T13:35:00,27.4980,-83.7220,77.16,11111222 
COMPS,ioos:station:USF.COMPS:C12:1,2019-10-03T14:35:00,27.4980,-83.7220,78.58,11111222 
COMPS,ioos:station:USF.COMPS:C12:1,2019-10-03T15:35:00,27.4980,-83.7220,79.86,11111222 
COMPS,ioos:station:USF.COMPS:C12:1,2019-10-03T16:35:00,27.4980,-83.7220,78.5,11111222 
COMPS,ioos:station:USF.COMPS:C12:1,2019-10-03T17:35:00,27.4980,-83.7220,76.9,11111222 
COMPS,ioos:station:USF.COMPS:C12:1,2019-10-03T18:35:00,27.4980,-83.7220,77.03,11111222 
COMPS,ioos:station:USF.COMPS:C12:1,2019-10-03T19:35:00,27.4980,-83.7220,72.98,11111222 
COMPS,ioos:station:USF.COMPS:C12:1,2019-10-03T20:35:00,27.4980,-83.7220,75.59,11111222 
COMPS,ioos:station:USF.COMPS:C12:1,2019-10-03T21:35:00,27.4980,-83.7220,76.67,11111222 
COMPS,ioos:station:USF.COMPS:C12:1,2019-10-03T22:35:00,27.4980,-83.7220,76.42,11111222 
COMPS,ioos:station:USF.COMPS:C12:1,2019-10-03T23:35:00,27.4980,-83.7220,77.59,11111222 
COMPS,ioos:station:USF.COMPS:C12:1,2019-10-04T00:35:00,27.4980,-83.7220,76.44,11111222 
COMPS,ioos:station:USF.COMPS:C12:1,2019-10-04T01:35:00,27.4980,-83.7220,76.19,11111222 
COMPS,ioos:station:USF.COMPS:C12:1,2019-10-04T02:35:00,27.4980,-83.7220,77.84,11111222 
COMPS,ioos:station:USF.COMPS:C12:1,2019-10-04T03:35:00,27.4980,-83.7220,79.97,11111222 
COMPS,ioos:station:USF.COMPS:C12:1,2019-10-04T04:35:00,27.4980,-83.7220,74.29,11111222 
COMPS,ioos:station:USF.COMPS:C12:1,2019-10-04T05:35:00,27.4980,-83.7220,76.41,11111222 
COMPS,ioos:station:USF.COMPS:C12:1,2019-10-04T06:35:00,27.4980,-83.7220,78.54,11111222 
COMPS,ioos:station:USF.COMPS:C12:1,2019-10-04T07:35:00,27.4980,-83.7220,80.29,11111222 
COMPS,ioos:station:USF.COMPS:C12:1,2019-10-04T08:35:00,27.4980,-83.7220,80.43,11111222 
COMPS,ioos:station:USF.COMPS:C12:1,2019-10-04T09:35:00,27.4980,-83.7220,79.19,11111222 
COMPS,ioos:station:USF.COMPS:C12:1,2019-10-04T10:35:00,27.4980,-83.7220,79.02,11111222 
COMPS,ioos:station:USF.COMPS:C12:1,2019-10-04T11:35:00,27.4980,-83.7220,78.39,11111222 
COMPS,ioos:station:USF.COMPS:C12:1,2019-10-04T12:35:00,27.4980,-83.7220,74.03,11111222 
COMPS,ioos:station:USF.COMPS:C12:1,2019-10-04T13:35:00,27.4980,-83.7220,72.79,11111222 
COMPS,ioos:station:USF.COMPS:C12:1,2019-10-04T14:35:00,27.4980,-83.7220,73.11,11111222 
COMPS,ioos:station:USF.COMPS:C12:1,2019-10-04T15:35:00,27.4980,-83.7220,75.1,11111222 
COMPS,ioos:station:USF.COMPS:C12:1,2019-10-04T16:35:00,27.4980,-83.7220,77.0,11111222 
COMPS,ioos:station:USF.COMPS:C12:1,2019-10-04T17:35:00,27.4980,-83.7220,76.75,11111222 
COMPS,ioos:station:USF.COMPS:C12:1,2019-10-04T18:35:00,27.4980,-83.7220,73.5,11111222 
COMPS,ioos:station:USF.COMPS:C12:1,2019-10-04T19:35:00,27.4980,-83.7220,72.66,11111222 
COMPS,ioos:station:USF.COMPS:C12:1,2019-10-04T20:35:00,27.4980,-83.7220,72.79,11111222 
COMPS,ioos:station:USF.COMPS:C12:1,2019-10-04T21:35:00,27.4980,-83.7220,71.91,11111222 
COMPS,ioos:station:USF.COMPS:C12:1,2019-10-04T22:35:00,27.4980,-83.7220,71.36,11111222 
COMPS,ioos:station:USF.COMPS:C12:1,2019-10-04T23:35:00,27.4980,-83.7220,72.18,11111222 
COMPS,ioos:station:USF.COMPS:C12:1,2019-10-05T00:35:00,27.4980,-83.7220,75.37,11111222 
COMPS,ioos:station:USF.COMPS:C12:1,2019-10-05T01:35:00,27.4980,-83.7220,76.84,11111222 
COMPS,ioos:station:USF.COMPS:C12:1,2019-10-05T02:35:00,27.4980,-83.7220,77.53,11111222 
COMPS,ioos:station:USF.COMPS:C12:1,2019-10-05T03:35:00,27.4980,-83.7220,78.04,11111222 
COMPS,ioos:station:USF.COMPS:C12:1,2019-10-05T04:35:00,27.4980,-83.7220,78.45,11111222 
COMPS,ioos:station:USF.COMPS:C12:1,2019-10-05T05:35:00,27.4980,-83.7220,81.53,11111222 
COMPS,ioos:station:USF.COMPS:C12:1,2019-10-05T06:35:00,27.4980,-83.7220,83.51,11111222 
COMPS,ioos:station:USF.COMPS:C12:1,2019-10-05T07:35:00,27.4980,-83.7220,81.57,11111222 
COMPS,ioos:station:USF.COMPS:C12:1,2019-10-05T08:35:00,27.4980,-83.7220,83.51,11111222 
COMPS,ioos:station:USF.COMPS:C12:1,2019-10-05T09:35:00,27.4980,-83.7220,84.59,11111222 
COMPS,ioos:station:USF.COMPS:C12:1,2019-10-05T10:35:00,27.4980,-83.7220,84.66,11111222 
COMPS,ioos:station:USF.COMPS:C12:1,2019-10-05T11:35:00,27.4980,-83.7220,83.69,11111222 
COMPS,ioos:station:USF.COMPS:C12:1,2019-10-05T12:35:00,27.4980,-83.7220,83.44,11111222 
COMPS,ioos:station:USF.COMPS:C12:1,2019-10-05T13:35:00,27.4980,-83.7220,83.07,11111222 
COMPS,ioos:station:USF.COMPS:C12:1,2019-10-05T14:35:00,27.4980,-83.7220,83.19,11111222 
COMPS,ioos:station:USF.COMPS:C12:1,2019-10-05T15:35:00,27.4980,-83.7220,83.86,11111222 
COMPS,ioos:station:USF.COMPS:C12:1,2019-10-05T16:35:00,27.4980,-83.7220,84.14,11111222 
COMPS,ioos:station:USF.COMPS:C12:1,2019-10-05T17:35:00,27.4980,-83.7220,82.37,11111222 
COMPS,ioos:station:USF.COMPS:C12:1,2019-10-05T18:35:00,27.4980,-83.7220,79.83,11111222 
COMPS,ioos:station:USF.COMPS:C12:1,2019-10-05T19:35:00,27.4980,-83.7220,77.07,11111222 
COMPS,ioos:station:USF.COMPS:C12:1,2019-10-05T20:35:00,27.4980,-83.7220,80.27,11111222 
COMPS,ioos:station:USF.COMPS:C12:1,2019-10-05T21:35:00,27.4980,-83.7220,81.9,11111222 
COMPS,ioos:station:USF.COMPS:C12:1,2019-10-05T22:35:00,27.4980,-83.7220,82.43,11111222 
COMPS,ioos:station:USF.COMPS:C12:1,2019-10-05T23:35:00,27.4980,-83.7220,79.71,11111222 
COMPS,ioos:station:USF.COMPS:C12:1,2019-10-06T00:35:00,27.4980,-83.7220,79.07,11111222 
COMPS,ioos:station:USF.COMPS:C12:1,2019-10-06T01:35:00,27.4980,-83.7220,79.82,11111222 
COMPS,ioos:station:USF.COMPS:C12:1,2019-10-06T02:35:00,27.4980,-83.7220,75.84,11111222 
COMPS,ioos:station:USF.COMPS:C12:1,2019-10-06T03:35:00,27.4980,-83.7220,78.1,11111222 
COMPS,ioos:station:USF.COMPS:C12:1,2019-10-06T04:35:00,27.4980,-83.7220,81.24,11111222 
COMPS,ioos:station:USF.COMPS:C12:1,2019-10-06T05:35:00,27.4980,-83.7220,82.3,11111222 
COMPS,ioos:station:USF.COMPS:C12:1,2019-10-06T06:35:00,27.4980,-83.7220,81.71,11111222 
COMPS,ioos:station:USF.COMPS:C12:1,2019-10-06T07:35:00,27.4980,-83.7220,81.99,11111222 
COMPS,ioos:station:USF.COMPS:C12:1,2019-10-06T08:35:00,27.4980,-83.7220,81.42,11111222 
COMPS,ioos:station:USF.COMPS:C12:1,2019-10-06T09:35:00,27.4980,-83.7220,79.8,11111222 
COMPS,ioos:station:USF.COMPS:C12:1,2019-10-06T10:35:00,27.4980,-83.7220,81.15,11111222 
COMPS,ioos:station:USF.COMPS:C12:1,2019-10-06T12:35:00,27.4980,-83.7220,76.85,11111222 
COMPS,ioos:station:USF.COMPS:C12:1,2019-10-06T13:35:00,27.4980,-83.7220,78.22,11111222 
COMPS,ioos:station:USF.COMPS:C12:1,2019-10-06T14:35:00,27.4980,-83.7220,80.39,11111222 
COMPS,ioos:station:USF.COMPS:C12:1,2019-10-06T15:35:00,27.4980,-83.7220,79.6,11111222 
COMPS,ioos:station:USF.COMPS:C12:1,2019-10-06T16:35:00,27.4980,-83.7220,77.78,11111222 
COMPS,ioos:station:USF.COMPS:C12:1,2019-10-06T17:35:00,27.4980,-83.7220,77.84,11111222 
COMPS,ioos:station:USF.COMPS:C12:1,2019-10-06T18:35:00,27.4980,-83.7220,79.72,11111222 
COMPS,ioos:station:USF.COMPS:C12:1,2019-10-06T19:35:00,27.4980,-83.7220,78.16,11111222 
COMPS,ioos:station:USF.COMPS:C12:1,2019-10-06T20:35:00,27.4980,-83.7220,80.26,11111222 
COMPS,ioos:station:USF.COMPS:C12:1,2019-10-06T21:35:00,27.4980,-83.7220,81.2,11111222 
COMPS,ioos:station:USF.COMPS:C12:1,2019-10-06T22:35:00,27.4980,-83.7220,81.06,11111222 
COMPS,ioos:station:USF.COMPS:C12:1,2019-10-06T23:35:00,27.4980,-83.7220,81.79,11111222 
COMPS,ioos:station:USF.COMPS:C12:1,2019-10-07T00:35:00,27.4980,-83.7220,78.48,11111222 
COMPS,ioos:station:USF.COMPS:C12:1,2019-10-07T01:35:00,27.4980,-83.7220,80.66,11111222 
COMPS,ioos:station:USF.COMPS:C12:1,2019-10-07T02:35:00,27.4980,-83.7220,79.61,11111222 
COMPS,ioos:station:USF.COMPS:C12:1,2019-10-07T03:35:00,27.4980,-83.7220,78.28,11111222 
COMPS,ioos:station:USF.COMPS:C12:1,2019-10-07T04:35:00,27.4980,-83.7220,77.74,11111222 
COMPS,ioos:station:USF.COMPS:C12:1,2019-10-07T05:35:00,27.4980,-83.7220,80.88,11111222 
COMPS,ioos:station:USF.COMPS:C12:1,2019-10-07T06:35:00,27.4980,-83.7220,82.63,11111222 
COMPS,ioos:station:USF.COMPS:C12:1,2019-10-07T07:35:00,27.4980,-83.7220,82.78,11111222 
COMPS,ioos:station:USF.COMPS:C12:1,2019-10-07T08:35:00,27.4980,-83.7220,83.31,11111222 
COMPS,ioos:station:USF.COMPS:C12:1,2019-10-07T09:35:00,27.4980,-83.7220,82.64,11111222 
COMPS,ioos:station:USF.COMPS:C12:1,2019-10-07T10:35:00,27.4980,-83.7220,85.42,11111222 
COMPS,ioos:station:USF.COMPS:C12:1,2019-10-07T11:35:00,27.4980,-83.7220,84.57,11111222 
COMPS,ioos:station:USF.COMPS:C12:1,2019-10-07T12:35:00,27.4980,-83.7220,85.3,11111222 
COMPS,ioos:station:USF.COMPS:C12:1,2019-10-07T14:35:00,27.4980,-83.7220,84.42,11111222 
COMPS,ioos:station:USF.COMPS:C12:1,2019-10-07T15:35:00,27.4980,-83.7220,84.91,11111222 
COMPS,ioos:station:USF.COMPS:C12:1,2019-10-07T16:35:00,27.4980,-83.7220,87.33,11111222 
COMPS,ioos:station:USF.COMPS:C12:1,2019-10-07T17:35:00,27.4980,-83.7220,87.73,11111222 
COMPS,ioos:station:USF.COMPS:C12:1,2019-10-07T18:35:00,27.4980,-83.7220,84.49,11111222 
COMPS,ioos:station:USF.COMPS:C12:1,2019-10-07T19:35:00,27.4980,-83.7220,83.05,11111222 
COMPS,ioos:station:USF.COMPS:C12:1,2019-10-07T20:35:00,27.4980,-83.7220,83.84,11111222 
COMPS,ioos:station:USF.COMPS:C12:1,2019-10-07T21:35:00,27.4980,-83.7220,82.78,11111222 
COMPS,ioos:station:USF.COMPS:C12:1,2019-10-07T22:35:00,27.4980,-83.7220,83.28,11111222 
COMPS,ioos:station:USF.COMPS:C12:1,2019-10-07T23:35:00,27.4980,-83.7220,82.4,11111222 
COMPS,ioos:station:USF.COMPS:C12:1,2019-10-08T01:35:00,27.4980,-83.7220,87.98,11111222 
COMPS,ioos:station:USF.COMPS:C12:1,2019-10-08T02:35:00,27.4980,-83.7220,88.24,11111222 
COMPS,ioos:station:USF.COMPS:C12:1,2019-10-08T03:35:00,27.4980,-83.7220,86.42,11111222 
COMPS,ioos:station:USF.COMPS:C12:1,2019-10-08T04:35:00,27.4980,-83.7220,87.75,11111222 
COMPS,ioos:station:USF.COMPS:C12:1,2019-10-08T05:35:00,27.4980,-83.7220,87.4,11111222 
COMPS,ioos:station:USF.COMPS:C12:1,2019-10-08T06:35:00,27.4980,-83.7220,86.88,11111222 
COMPS,ioos:station:USF.COMPS:C12:1,2019-10-08T07:35:00,27.4980,-83.7220,88.85,11111222 
COMPS,ioos:station:USF.COMPS:C12:1,2019-10-08T08:35:00,27.4980,-83.7220,88.82,11111222 
COMPS,ioos:station:USF.COMPS:C12:1,2019-10-08T09:35:00,27.4980,-83.7220,88.41,11111222 
COMPS,ioos:station:USF.COMPS:C12:1,2019-10-08T10:35:00,27.4980,-83.7220,88.17,11111222 
COMPS,ioos:station:USF.COMPS:C12:1,2019-10-08T11:35:00,27.4980,-83.7220,87.07,11111222 
COMPS,ioos:station:USF.COMPS:C12:1,2019-10-08T12:35:00,27.4980,-83.7220,86.41,11111222 
COMPS,ioos:station:USF.COMPS:C12:1,2019-10-08T13:35:00,27.4980,-83.7220,91.94,11111222 
COMPS,ioos:station:USF.COMPS:C12:1,2019-10-08T14:35:00,27.4980,-83.7220,93.2,11111222 
COMPS,ioos:station:USF.COMPS:C12:1,2019-10-08T15:35:00,27.4980,-83.7220,89.87,11111222 
COMPS,ioos:station:USF.COMPS:C12:1,2019-10-08T16:35:00,27.4980,-83.7220,87.25,11111222 
COMPS,ioos:station:USF.COMPS:C12:1,2019-10-08T17:35:00,27.4980,-83.7220,85.99,11111222 
COMPS,ioos:station:USF.COMPS:C12:1,2019-10-08T18:35:00,27.4980,-83.7220,84.82,11111222 
COMPS,ioos:station:USF.COMPS:C12:1,2019-10-08T19:35:00,27.4980,-83.7220,84.53,11111222 
COMPS,ioos:station:USF.COMPS:C12:1,2019-10-08T20:35:00,27.4980,-83.7220,83.95,11111222 
COMPS,ioos:station:USF.COMPS:C12:1,2019-10-08T21:35:00,27.4980,-83.7220,83.33,11111222 
COMPS,ioos:station:USF.COMPS:C12:1,2019-10-08T22:35:00,27.4980,-83.7220,82.51,11111222 
COMPS,ioos:station:USF.COMPS:C12:1,2019-10-08T23:35:00,27.4980,-83.7220,82.5,11111222 
COMPS,ioos:station:USF.COMPS:C12:1,2019-10-09T00:35:00,27.4980,-83.7220,82.5,11111222 
COMPS,ioos:station:USF.COMPS:C12:1,2019-10-09T01:35:00,27.4980,-83.7220,88.73,11111222 
COMPS,ioos:station:USF.COMPS:C12:1,2019-10-09T02:35:00,27.4980,-83.7220,92.37,11111222 
COMPS,ioos:station:USF.COMPS:C12:1,2019-10-09T03:35:00,27.4980,-83.7220,86.81,11111222 
COMPS,ioos:station:USF.COMPS:C12:1,2019-10-09T04:35:00,27.4980,-83.7220,85.18,11111222 
COMPS,ioos:station:USF.COMPS:C12:1,2019-10-09T05:35:00,27.4980,-83.7220,87.92,11111222 
COMPS,ioos:station:USF.COMPS:C12:1,2019-10-09T06:35:00,27.4980,-83.7220,88.19,11111222 
COMPS,ioos:station:USF.COMPS:C12:1,2019-10-09T07:35:00,27.4980,-83.7220,86.38,11111222 
COMPS,ioos:station:USF.COMPS:C12:1,2019-10-09T08:35:00,27.4980,-83.7220,85.56,11111222 
COMPS,ioos:station:USF.COMPS:C12:1,2019-10-09T09:35:00,27.4980,-83.7220,85.2,11111222 
COMPS,ioos:station:USF.COMPS:C12:1,2019-10-09T10:35:00,27.4980,-83.7220,86.89,11111222 
COMPS,ioos:station:USF.COMPS:C12:1,2019-10-09T11:35:00,27.4980,-83.7220,85.99,11111222 
COMPS,ioos:station:USF.COMPS:C12:1,2019-10-09T12:35:00,27.4980,-83.7220,86.07,11111222 
COMPS,ioos:station:USF.COMPS:C12:1,2019-10-09T13:35:00,27.4980,-83.7220,86.93,11111222 
COMPS,ioos:station:USF.COMPS:C12:1,2019-10-09T14:35:00,27.4980,-83.7220,86.49,11111222 
COMPS,ioos:station:USF.COMPS:C12:1,2019-10-09T15:35:00,27.4980,-83.7220,85.65,11111222 
COMPS,ioos:station:USF.COMPS:C12:1,2019-10-09T16:35:00,27.4980,-83.7220,85.18,11111222 
COMPS,ioos:station:USF.COMPS:C12:1,2019-10-09T17:35:00,27.4980,-83.7220,89.78,11111222 
COMPS,ioos:station:USF.COMPS:C12:1,2019-10-09T18:35:00,27.4980,-83.7220,90.73,11111222 
COMPS,ioos:station:USF.COMPS:C12:1,2019-10-09T19:35:00,27.4980,-83.7220,88.78,11111222 
COMPS,ioos:station:USF.COMPS:C12:1,2019-10-09T20:35:00,27.4980,-83.7220,91.84,11111222 
COMPS,ioos:station:USF.COMPS:C12:1,2019-10-09T21:35:00,27.4980,-83.7220,91.29,11111222 
COMPS,ioos:station:USF.COMPS:C12:1,2019-10-09T22:35:00,27.4980,-83.7220,88.71,11111222 
COMPS,ioos:station:USF.COMPS:C12:1,2019-10-10T01:35:00,27.4980,-83.7220,80.88,11111222 
COMPS,ioos:station:USF.COMPS:C12:1,2019-10-10T02:35:00,27.4980,-83.7220,80.78,11111222 
COMPS,ioos:station:USF.COMPS:C12:1,2019-10-10T03:35:00,27.4980,-83.7220,81.09,11111222 
COMPS,ioos:station:USF.COMPS:C12:1,2019-10-10T04:35:00,27.4980,-83.7220,83.79,11111222 
COMPS,ioos:station:USF.COMPS:C12:1,2019-10-10T05:35:00,27.4980,-83.7220,83.85,11111222 
COMPS,ioos:station:USF.COMPS:C12:1,2019-10-10T06:35:00,27.4980,-83.7220,83.32,11111222 
COMPS,ioos:station:USF.COMPS:C12:1,2019-10-10T07:35:00,27.4980,-83.7220,82.49,11111222 
COMPS,ioos:station:USF.COMPS:C12:1,2019-10-10T08:35:00,27.4980,-83.7220,83.7,11111222 
COMPS,ioos:station:USF.COMPS:C12:1,2019-10-10T09:35:00,27.4980,-83.7220,83.61,11111222 
COMPS,ioos:station:USF.COMPS:C12:1,2019-10-10T10:35:00,27.4980,-83.7220,83.55,11111222 
COMPS,ioos:station:USF.COMPS:C12:1,2019-10-10T11:35:00,27.4980,-83.7220,83.98,11111222 
COMPS,ioos:station:USF.COMPS:C12:1,2019-10-10T12:35:00,27.4980,-83.7220,85.47,11111222 
COMPS,ioos:station:USF.COMPS:C12:1,2019-10-10T13:35:00,27.4980,-83.7220,86.27,11111222 
COMPS,ioos:station:USF.COMPS:C12:1,2019-10-10T14:35:00,27.4980,-83.7220,85.87,11111222 
COMPS,ioos:station:USF.COMPS:C12:1,2019-10-10T15:35:00,27.4980,-83.7220,85.17,11111222 
COMPS,ioos:station:USF.COMPS:C12:1,2019-10-10T16:35:00,27.4980,-83.7220,85.4,11111222 
COMPS,ioos:station:USF.COMPS:C12:1,2019-10-10T17:35:00,27.4980,-83.7220,84.7,11111222 
COMPS,ioos:station:USF.COMPS:C12:1,2019-10-10T18:35:00,27.4980,-83.7220,84.22,11111222 
COMPS,ioos:station:USF.COMPS:C12:1,2019-10-10T19:35:00,27.4980,-83.7220,82.21,11111222 
COMPS,ioos:station:USF.COMPS:C12:1,2019-10-10T20:35:00,27.4980,-83.7220,81.68,11111222 
COMPS,ioos:station:USF.COMPS:C12:1,2019-10-10T21:35:00,27.4980,-83.7220,81.58,11111222 
COMPS,ioos:station:USF.COMPS:C12:1,2019-10-10T22:35:00,27.4980,-83.7220,80.68,11111222 
COMPS,ioos:station:USF.COMPS:C12:1,2019-10-11T00:35:00,27.4980,-83.7220,78.77,11111222 
COMPS,ioos:station:USF.COMPS:C12:1,2019-10-11T01:35:00,27.4980,-83.7220,76.16,11111222 
COMPS,ioos:station:USF.COMPS:C12:1,2019-10-11T02:35:00,27.4980,-83.7220,75.5,11111222 
COMPS,ioos:station:USF.COMPS:C12:1,2019-10-11T03:35:00,27.4980,-83.7220,76.43,11111222 
COMPS,ioos:station:USF.COMPS:C12:1,2019-10-11T04:35:00,27.4980,-83.7220,77.91,11111222 
COMPS,ioos:station:USF.COMPS:C12:1,2019-10-11T05:35:00,27.4980,-83.7220,79.93,11111222 
COMPS,ioos:station:USF.COMPS:C12:1,2019-10-11T06:35:00,27.4980,-83.7220,81.55,11111222 
COMPS,ioos:station:USF.COMPS:C12:1,2019-10-11T07:35:00,27.4980,-83.7220,82.31,11111222 
COMPS,ioos:station:USF.COMPS:C12:1,2019-10-11T08:35:00,27.4980,-83.7220,83.18,11111222 
COMPS,ioos:station:USF.COMPS:C12:1,2019-10-11T09:35:00,27.4980,-83.7220,83.66,11111222 
COMPS,ioos:station:USF.COMPS:C12:1,2019-10-11T10:35:00,27.4980,-83.7220,83.8,11111222 
COMPS,ioos:station:USF.COMPS:C12:1,2019-10-11T11:35:00,27.4980,-83.7220,83.59,11111222 
COMPS,ioos:station:USF.COMPS:C12:1,2019-10-11T12:35:00,27.4980,-83.7220,82.73,11111222 
COMPS,ioos:station:USF.COMPS:C12:1,2019-10-11T13:35:00,27.4980,-83.7220,80.82,11111222 
COMPS,ioos:station:USF.COMPS:C12:1,2019-10-11T14:35:00,27.4980,-83.7220,80.61,11111222 
COMPS,ioos:station:USF.COMPS:C12:1,2019-10-11T15:35:00,27.4980,-83.7220,80.59,11111222 
COMPS,ioos:station:USF.COMPS:C12:1,2019-10-11T17:35:00,27.4980,-83.7220,80.66,11111222 
COMPS,ioos:station:USF.COMPS:C12:1,2019-10-11T18:35:00,27.4980,-83.7220,79.12,11111222 
COMPS,ioos:station:USF.COMPS:C12:1,2019-10-11T19:35:00,27.4980,-83.7220,77.86,11111222 
COMPS,ioos:station:USF.COMPS:C12:1,2019-10-11T20:35:00,27.4980,-83.7220,76.18,11111222 
COMPS,ioos:station:USF.COMPS:C12:1,2019-10-11T21:35:00,27.4980,-83.7220,75.51,11111222 
COMPS,ioos:station:USF.COMPS:C12:1,2019-10-11T22:35:00,27.4980,-83.7220,75.75,11111222 
COMPS,ioos:station:USF.COMPS:C12:1,2019-10-11T23:35:00,27.4980,-83.7220,75.95,11111222 
COMPS,ioos:station:USF.COMPS:C12:1,2019-10-12T00:35:00,27.4980,-83.7220,73.41,11111222 
COMPS,ioos:station:USF.COMPS:C12:1,2019-10-12T01:35:00,27.4980,-83.7220,69.97,11111222 
COMPS,ioos:station:USF.COMPS:C12:1,2019-10-12T02:35:00,27.4980,-83.7220,71.82,11111222 
COMPS,ioos:station:USF.COMPS:C12:1,2019-10-12T03:35:00,27.4980,-83.7220,69.93,11111222 
COMPS,ioos:station:USF.COMPS:C12:1,2019-10-12T04:35:00,27.4980,-83.7220,69.17,11111222 
COMPS,ioos:station:USF.COMPS:C12:1,2019-10-12T05:35:00,27.4980,-83.7220,76.29,11111222 
COMPS,ioos:station:USF.COMPS:C12:1,2019-10-12T06:35:00,27.4980,-83.7220,74.08,11111222 
COMPS,ioos:station:USF.COMPS:C12:1,2019-10-12T07:35:00,27.4980,-83.7220,72.09,11111222 
COMPS,ioos:station:USF.COMPS:C12:1,2019-10-12T08:35:00,27.4980,-83.7220,75.47,11111222 
COMPS,ioos:station:USF.COMPS:C12:1,2019-10-12T09:35:00,27.4980,-83.7220,77.29,11111222 
COMPS,ioos:station:USF.COMPS:C12:1,2019-10-12T10:35:00,27.4980,-83.7220,79.36,11111222 
COMPS,ioos:station:USF.COMPS:C12:1,2019-10-12T11:35:00,27.4980,-83.7220,78.25,11111222 
COMPS,ioos:station:USF.COMPS:C12:1,2019-10-12T12:35:00,27.4980,-83.7220,76.72,11111222 
COMPS,ioos:station:USF.COMPS:C12:1,2019-10-12T13:35:00,27.4980,-83.7220,72.06,11111222 
COMPS,ioos:station:USF.COMPS:C12:1,2019-10-12T14:35:00,27.4980,-83.7220,72.23,11111222 